This demonstration page uses our WeatherBlox Daily Observations layout. Learn more.

Left ArrowRight Arrow

39.01783, -85.05884

Hourly Observations for June 26, 2015

Temp ( °F °C ) Dew Point ( °F °C ) Humidity (%) Winds ( mph kmh ) Pressure ( in mb ) Visibility ( mi km ) Precip ( " mm )
12:52 am 00:52 Cloudy 73 22.8 69 20.6 87 87 N N/A 29.92 1013 10 16 N/A
1:52 am 01:52 Cloudy 73 22.8 69 20.6 87 87 N N/A 29.90 1013 9 14 N/A
2:52 am 02:52 Cloudy with Thunderstorms 74 23.3 69 20.6 85 85 WSW 10 17 29.94 1014 5 8 N/A
3:01 am 03:01 Cloudy with Thunderstorms 73 23 70 21 89 89 WSW 7 11 29.94 1014 2 3 0.16 4.06
3:26 am 03:26 Cloudy with Light Rain 72 22 68 20 88 88 WSW 6 9 29.94 1014 5 8 N/A
3:52 am 03:52 Cloudy with Light Rain 71 21.7 69 20.6 94 94 W 7 11 29.92 1013 9 14 0.27 6.86
4:52 am 04:52 Cloudy 70 21.1 68 20 93 93 N N/A 29.90 1012 10 16 0.03 0.76
5:52 am 05:52 Mostly Cloudy 70 21.1 68 20 93 93 ESE 7 11 29.88 1012 10 16 N/A
6:52 am 06:52 Cloudy with Mist and Fog 69 20.6 68 20 96 96 SW 6 9 29.92 1013 5 8 N/A
7:14 am 07:14 Cloudy with Mist and Fog 70 21 68 20 94 94 SW 5 7 29.94 1014 3 5 N/A
7:30 am 07:30 Mostly Cloudy with Mist and Fog 70 21 68 20 94 94 SW 6 9 29.94 1014 3 5 N/A
7:52 am 07:52 Mostly Cloudy with Mist and Fog 69 20.6 68 20 96 96 SW 3 6 29.94 1014 3 5 N/A
8:13 am 08:13 Cloudy 70 21 68 20 94 94 WSW 6 9 29.94 1014 3 5 N/A
8:42 am 08:42 Cloudy 72 22 70 21 94 94 WSW 8 13 29.94 1014 8 13 N/A
8:52 am 08:52 Cloudy 72 22.2 69 20.6 91 91 W 8 13 29.95 1014 8 13 N/A
9:14 am 09:14 Mostly Cloudy 73 23 70 21 89 89 SW 5 7 29.94 1014 10 16 N/A
9:52 am 09:52 Mostly Cloudy 73 22.8 69 20.6 87 87 W 7 11 29.96 1015 10 16 N/A
10:24 am 10:24 Mostly Cloudy 73 23 68 20 83 83 WSW 8 13 29.97 1015 10 16 N/A
10:46 am 10:46 Mostly Cloudy 75 24 70 21 83 83 WNW 5 7 29.94 1014 10 16 N/A
10:52 am 10:52 Mostly Cloudy 75 23.9 68 20 79 79 W 5 7 29.95 1014 10 16 N/A
11:27 am 11:27 Mostly Cloudy 75 24 70 21 83 83 W 6 9 29.97 1015 10 16 N/A
11:52 am 11:52 Mostly Cloudy 75 23.9 69 20.6 82 82 SSW 5 7 29.96 1014 10 16 N/A
12:08 pm 12:08 Mostly Cloudy 77 25 70 21 79 79 SSW 6 9 29.94 1014 10 16 N/A
12:52 pm 12:52 Mostly Cloudy 78 25.6 68 20 71 71 SSW 6 9 29.94 1014 10 16 N/A
1:52 pm 13:52 Mostly Cloudy 80 26.7 69 20.6 69 69 VRB 3 6 29.92 1013 10 16 N/A
2:52 pm 14:52 Cloudy 79 26.1 68 20 69 69 S 3 6 29.90 1013 10 16 N/A
3:52 pm 15:52 Cloudy with Light Rain 78 25.6 71 21.7 79 79 SSW 5 7 29.89 1012 9 14 0.03 0.76
4:52 pm 16:52 Cloudy 80 26.7 70 21.1 71 71 N N/A 29.90 1013 10 16 N/A
5:52 pm 17:52 Cloudy 75 23.9 68 20 79 79 ENE 10 17 29.88 1012 10 16 N/A
6:52 pm 18:52 Cloudy with Light Rain 73 22.8 65 18.3 76 76 ENE 10 17 29.90 1012 10 16 N/A
7:24 pm 19:24 Cloudy with Thunderstorms 72 22 64 18 78 78 ENE 8 13 29.88 1012 10 16 N/A
7:52 pm 19:52 Cloudy with Thunderstorms 71 21.7 66 18.9 84 84 E 14 22 29.86 1011 10 16 N/A
8:41 pm 20:41 Cloudy with Light Rain 70 21 66 19 88 88 SE 15 24 29.83 1010 9 14 0.03 0.76
8:52 pm 20:52 Cloudy 69 20.6 66 18.9 90 90 SSE 9 15 29.82 1010 10 16 0.03 0.76
9:52 pm 21:52 Cloudy 68 20 65 18.3 90 90 S 8 13 29.82 1010 10 16 N/A
10:20 pm 22:20 Cloudy 66 19 64 18 94 94 S 12 19 29.83 1010 10 16 N/A
10:52 pm 22:52 Cloudy 67 19.4 65 18.3 93 93 S 8 13 29.84 1011 10 16 N/A
11:52 pm 23:52 Cloudy with Light Rain 67 19.4 65 18.3 93 93 S 9 15 29.83 1010 10 16 0.01 0.25

Powered by AerisWeather